sat.trackr.live / text

‹ back to catalog

STARLINK-3923

NORAD 52489 · 2022-049AQ

PAYLOAD ACTIVE UNKNOWN

§ Identity

Operator
Country
US
Launch date
2022-05-06
Launch site
AFETR
Launch vehicle
Mass (kg)
RCS (m²)

Purposes: comms

External: N2YO · Heavens-Above · Gunter

§ Orbital elements

Epoch: 2026-05-25T04:39:53.434080Z

Period
95.44 min
Inclination
53.2130°
Eccentricity
0.0001071
Mean motion
15.08843859 rev/d
Perigee alt
539.0 km
Apogee alt
540.5 km
Semi-major
6,917.9 km
B*
5.4969e-5
RAAN
75.6769°
Arg perigee
72.6154°
Mean anomaly
287.4955°
Rev number
22,380

§ Raw data

STARLINK-39231 52489U 22049AQ  26145.19436845  .00000587  00000+0  54969-4 0  99992 52489  53.2130  75.6769 0001071  72.6154 287.4955 15.08843859223804

JSON: /api/v1/satellites/52489 · /tle

For live sub-satellite position, see the globe view (requires WebGL).

§ Visibility from observer

Set your observer location to see the next 7 days of passes ≥ 10°. The values pass through the URL so the page stays shareable.

No JS? Fill the form by hand. The geolocation button needs JavaScript.